QPF
0.09 0.09 0.07 0.04 0.03 0.03 0.02 0.02 0.01 0.01 0.01 0.02 0.03 0.02 0.01 0.01 0.01 0.01 0.01 0.02 0.01 0.00 0.00 0.00 0.00 0.01 0.02 0.02 0.02 0.01 0.01 0.02 0.02 0.02 0.02 0.01 0.01 0.00 0.00 0.00 0.00 0.00 0.00 0.00
0.08 0.07 0.05 0.04 0.04 0.04 0.04 0.03 0.02 0.01 0.01 0.02 0.02 0.02 0.01 0.01 0.01 0.01 0.01 0.01 0.01 0.01 0.00 0.00 0.00 0.00 0.01 0.02 0.02 0.02 0.01 0.02 0.03 0.04 0.04 0.03 0.02 0.01 0.00 0.00 0.00 0.00 0.00 0.00
0.05 0.05 0.03 0.03 0.04 0.04 0.04 0.04 0.03 0.02 0.02 0.01 0.01 0.01 0.01 0.00 0.00 0.00 0.00 0.01 0.01 0.01 0.01 0.00 0.00 0.00 0.00 0.01 0.02 0.02 0.02 0.01 0.01 0.02 0.05 0.07 0.06 0.03 0.01 0.01 0.00 0.00 0.00 0.00
0.04 0.04 0.03 0.04 0.04 0.04 0.03 0.02 0.02 0.02 0.03 0.03 0.02 0.01 0.00 0.00 0.00 0.00 0.00 0.00 0.00 0.01 0.01 0.01 0.01 0.01 0.00 0.01 0.02 0.02 0.02 0.02 0.01 0.01 0.03 0.05 0.09 0.10 0.07 0.04 0.02 0.01 0.00 0.00
0.05 0.03 0.03 0.03 0.02 0.03 0.03 0.02 0.02 0.03 0.04 0.05 0.03 0.02 0.01 0.00 0.00 0.00 0.00 0.00 0.00 0.00 0.01 0.01 0.01 0.01 0.01 0.01 0.01 0.02 0.02 0.02 0.02 0.02 0.01 0.03 0.03 0.05 0.06 0.06 0.05 0.03 0.02 0.01
0.04 0.03 0.03 0.02 0.02 0.03 0.03 0.03 0.04 0.05 0.08 0.10 0.04 0.03 0.01 0.00 0.00 0.00 0.00 0.00 0.00 0.00 0.01 0.01 0.01 0.01 0.01 0.01 0.01 0.01 0.01 0.02 0.02 0.03 0.02 0.03 0.03 0.04 0.05 0.06 0.06 0.05 0.04 0.03
0.04 0.03 0.02 0.02 0.02 0.03 0.05 0.06 0.10 0.11 0.11 0.07 0.01 0.02 0.01 0.00 0.00 0.00 0.00 0.00 0.00 0.00 0.00 0.00 0.01 0.01 0.01 0.01 0.01 0.01 0.01 0.02 0.03 0.04 0.03 0.02 0.02 0.03 0.03 0.04 0.05 0.06 0.06 0.05
0.04 0.03 0.02 0.02 0.02 0.02 0.03 0.06 0.09 0.09 0.06 0.02 0.00 0.01 0.00 0.00 0.00 0.00 0.00 0.00 0.00 0.00 0.00 0.00 0.00 0.00 0.00 0.00 0.01 0.01 0.01 0.01 0.02 0.03 0.04 0.04 0.03 0.03 0.03 0.03 0.03 0.04 0.05 0.06
0.04 0.02 0.01 0.01 0.01 0.01 0.03 0.04 0.05 0.08 0.07 0.04 0.01 0.00 0.00 0.00 0.00 0.00 0.00 0.00 0.00 0.00 0.00 0.00 0.00 0.00 0.00 0.00 0.00 0.01 0.01 0.01 0.01 0.02 0.02 0.04 0.05 0.04 0.03 0.02 0.02 0.02 0.03 0.03
0.06 0.04 0.02 0.02 0.03 0.03 0.02 0.03 0.05 0.10 0.09 0.04 0.01 0.00 0.00 0.00 0.00 0.00 0.00 0.00 0.00 0.00 0.00 0.00 0.00 0.00 0.00 0.00 0.00 0.00 0.01 0.01 0.01 0.01 0.02 0.03 0.04 0.05 0.04 0.03 0.02 0.02 0.02 0.02
0.05 0.06 0.03 0.03 0.03 0.03 0.04 0.04 0.05 0.07 0.07 0.05 0.02 0.00 0.00 0.00 0.00 0.00 0.00 0.00 0.00 0.00 0.00 0.00 0.00 0.00 0.00 0.00 0.00 0.00 0.00 0.01 0.01 0.01 0.01 0.02 0.03 0.04 0.04 0.04 0.03 0.03 0.02 0.02
0.04 0.06 0.04 0.03 0.02 0.02 0.04 0.04 0.06 0.07 0.05 0.03 0.02 0.01 0.00 0.00 0.00 0.00 0.00 0.00 0.00 0.00 0.00 0.00 0.00 0.00 0.00 0.00 0.00 0.00 0.00 0.00 0.01 0.01 0.01 0.01 0.02 0.03 0.03 0.04 0.04 0.03 0.03 0.03
0.05 0.06 0.05 0.05 0.05 0.04 0.04 0.04 0.05 0.08 0.08 0.05 0.03 0.01 0.00 0.00 0.00 0.00 0.00 0.00 0.00 0.00 0.00 0.00 0.00 0.00 0.00 0.00 0.00 0.00 0.00 0.00 0.00 0.00 0.00 0.01 0.01 0.01 0.02 0.03 0.03 0.04 0.03 0.03
0.06 0.05 0.04 0.04 0.04 0.04 0.05 0.03 0.03 0.06 0.09 0.05 0.02 0.01 0.00 0.00 0.00 0.00 0.00 0.00 0.00 0.01 0.01 0.01 0.00 0.00 0.00 0.00 0.00 0.00 0.00 0.00 0.00 0.00 0.00 0.00 0.00 0.01 0.01 0.02 0.02 0.02 0.03 0.03
0.03 0.03 0.02 0.02 0.02 0.03 0.04 0.04 0.04 0.03 0.03 0.03 0.01 0.01 0.00 0.00 0.00 0.00 0.00 0.00 0.00 0.00 0.00 0.00 0.00 0.00 0.00 0.00 0.00 0.00 0.00 0.00 0.00 0.00 0.00 0.00 0.00 0.00 0.00 0.01 0.01 0.01 0.02 0.02
0.03 0.02 0.01 0.01 0.01 0.01 0.02 0.02 0.03 0.04 0.03 0.01 0.01 0.01 0.00 0.00 0.00 0.00 0.00 0.00 0.00 0.00 0.00 0.00 0.00 0.00 0.00 0.00 0.00 0.00 0.00 0.00 0.00 0.00 0.00 0.00 0.00 0.00 0.00 0.00 0.00 0.01 0.01 0.02
0.02 0.02 0.02 0.01 0.01 0.02 0.01 0.01 0.01 0.02 0.02 0.02 0.01 0.01 0.00 0.00 0.00 0.00 0.00 0.00 0.00 0.00 0.00 0.00 0.00 0.00 0.00 0.00 0.00 0.00 0.00 0.00 0.00 0.00 0.00 0.00 0.00 0.00 0.00 0.00 0.00 0.00 0.01 0.01
0.02 0.03 0.04 0.02 0.02 0.02 0.01 0.00 0.01 0.00 0.00 0.00 0.01 0.01 0.01 0.01 0.01 0.00 0.00 0.00 0.00 0.00 0.00 0.00 0.00 0.00 0.00 0.00 0.00 0.00 0.00 0.00 0.00 0.00 0.00 0.01 0.00 0.00 0.00 0.00 0.00 0.01 0.01 0.01
0.02 0.03 0.04 0.03 0.02 0.01 0.01 0.00 0.00 0.01 0.00 0.00 0.00 0.00 0.00 0.00 0.01 0.01 0.01 0.01 0.01 0.00 0.00 0.00 0.00 0.00 0.01 0.00 0.00 0.00 0.00 0.00 0.00 0.00 0.01 0.01 0.01 0.01 0.00 0.00 0.00 0.00 0.01 0.01
0.01 0.02 0.04 0.04 0.03 0.01 0.01 0.00 0.00 0.00 0.00 0.00 0.00 0.00 0.00 0.00 0.00 0.00 0.00 0.00 0.00 0.00 0.00 0.00 0.00 0.00 0.01 0.01 0.00 0.00 0.00 0.00 0.00 0.00 0.00 0.01 0.00 0.00 0.00 0.00 0.00 0.00 0.00 0.00
0.03 0.04 0.04 0.03 0.02 0.01 0.00 0.00 0.00 0.01 0.01 0.00 0.00 0.00 0.00 0.00 0.00 0.00 0.00 0.00 0.00 0.00 0.00 0.00 0.00 0.00 0.00 0.00 0.00 0.00 0.00 0.00 0.00 0.00 0.00 0.00 0.00 0.00 0.00 0.00 0.00 0.00 0.00 0.00
0.03 0.04 0.03 0.02 0.02 0.01 0.00 0.00 0.01 0.01 0.01 0.01 0.00 0.00 0.00 0.00 0.00 0.00 0.00 0.00 0.00 0.00 0.00 0.00 0.00 0.00 0.00 0.00 0.00 0.00 0.00 0.00 0.00 0.00 0.00 0.00 0.01 0.01 0.01 0.01 0.01 0.01 0.01 0.01
0.01 0.02 0.02 0.01 0.01 0.00 0.00 0.00 0.01 0.01 0.01 0.00 0.00 0.00 0.00 0.00 0.00 0.00 0.00 0.00 0.00 0.00 0.00 0.00 0.00 0.00 0.00 0.00 0.00 0.00 0.00 0.00 0.00 0.00 0.00 0.01 0.01 0.01 0.01 0.01 0.01 0.01 0.01 0.01
0.00 0.00 0.01 0.01 0.01 0.00 0.00 0.00 0.00 0.00 0.00 0.00 0.00 0.00 0.00 0.00 0.00 0.00 0.00 0.00 0.00 0.00 0.00 0.00 0.00 0.00 0.00 0.00 0.00 0.00 0.00 0.00 0.00 0.00 0.00 0.00 0.01 0.01 0.01 0.01 0.01 0.01 0.01 0.01
0.00 0.01 0.01 0.01 0.00 0.00 0.00 0.00 0.00 0.00 0.00 0.00 0.00 0.00 0.00 0.00 0.00 0.00 0.00 0.00 0.00 0.00 0.00 0.00 0.00 0.00 0.00 0.00 0.00 0.00 0.00 0.00 0.00 0.00 0.00 0.00 0.01 0.01 0.01 0.01 0.01 0.01 0.01 0.01
0.00 0.00 0.01 0.01 0.01 0.01 0.00 0.00 0.00 0.00 0.00 0.00 0.00 0.00 0.00 0.00 0.00 0.00 0.00 0.00 0.00 0.00 0.00 0.00 0.00 0.00 0.00 0.00 0.00 0.00 0.00 0.00 0.00 0.00 0.00 0.00 0.00 0.01 0.01 0.01 0.01 0.01 0.01 0.01
MSLP
1018.91 1018.52 1018.02 1017.42 1016.77 1016.11 1015.49 1014.94 1014.48 1014.09 1013.76 1013.45 1013.14 1012.83 1012.52 1012.25 1012.05 1011.94 1011.96 1012.10 1012.33 1012.62 1012.91 1013.14 1013.27 1013.29 1013.21 1013.06 1012.90 1012.78 1012.74 1012.83 1013.05 1013.36 1013.75 1014.16 1014.55 1014.89 1015.17 1015.41 1015.62 1015.83 1016.08 1016.39
1018.87 1018.47 1017.97 1017.41 1016.83 1016.27 1015.77 1015.35 1014.99 1014.68 1014.37 1014.03 1013.64 1013.21 1012.75 1012.33 1012.00 1011.82 1011.80 1011.95 1012.25 1012.62 1013.00 1013.30 1013.47 1013.48 1013.34 1013.09 1012.79 1012.52 1012.34 1012.29 1012.39 1012.64 1012.98 1013.37 1013.76 1014.10 1014.39 1014.63 1014.83 1015.04 1015.27 1015.56
1018.83 1018.39 1017.90 1017.39 1016.90 1016.46 1016.12 1015.85 1015.64 1015.43 1015.18 1014.83 1014.38 1013.83 1013.23 1012.65 1012.18 1011.89 1011.81 1011.96 1012.29 1012.73 1013.18 1013.55 1013.77 1013.78 1013.61 1013.27 1012.86 1012.45 1012.12 1011.94 1011.93 1012.07 1012.34 1012.68 1013.04 1013.38 1013.66 1013.89 1014.08 1014.27 1014.49 1014.76
1018.86 1018.38 1017.87 1017.40 1017.00 1016.70 1016.52 1016.43 1016.38 1016.30 1016.12 1015.79 1015.30 1014.66 1013.93 1013.21 1012.60 1012.20 1012.04 1012.15 1012.49 1012.96 1013.47 1013.90 1014.15 1014.18 1013.98 1013.60 1013.10 1012.58 1012.13 1011.83 1011.69 1011.73 1011.91 1012.18 1012.48 1012.78 1013.03 1013.23 1013.41 1013.58 1013.78 1014.03
1019.05 1018.49 1017.95 1017.50 1017.17 1016.99 1016.96 1017.04 1017.15 1017.20 1017.12 1016.83 1016.32 1015.61 1014.79 1013.96 1013.23 1012.72 1012.48 1012.53 1012.84 1013.32 1013.85 1014.30 1014.58 1014.63 1014.43 1014.02 1013.47 1012.88 1012.34 1011.93 1011.70 1011.63 1011.71 1011.89 1012.12 1012.34 1012.54 1012.71 1012.85 1012.99 1013.16 1013.38
1019.46 1018.81 1018.22 1017.76 1017.47 1017.38 1017.47 1017.68 1017.92 1018.09 1018.09 1017.85 1017.35 1016.62 1015.74 1014.82 1014.01 1013.40 1013.08 1013.07 1013.33 1013.77 1014.29 1014.74 1015.03 1015.08 1014.89 1014.47 1013.91 1013.28 1012.70 1012.22 1011.90 1011.75 1011.73 1011.82 1011.96 1012.10 1012.23 1012.33 1012.42 1012.52 1012.64 1012.82
1020.14 1019.38 1018.73 1018.24 1017.96 1017.92 1018.07 1018.36 1018.69 1018.93 1018.99 1018.79 1018.31 1017.58 1016.68 1015.72 1014.85 1014.18 1013.80 1013.71 1013.90 1014.28 1014.74 1015.16 1015.42 1015.47 1015.28 1014.88 1014.32 1013.71 1013.11 1012.61 1012.25 1012.04 1011.94 1011.94 1011.99 1012.05 1012.09 1012.11 1012.13 1012.16 1012.23 1012.35
1021.06 1020.22 1019.51 1018.98 1018.69 1018.64 1018.80 1019.11 1019.46 1019.73 1019.81 1019.62 1019.16 1018.44 1017.54 1016.58 1015.70 1014.99 1014.55 1014.39 1014.50 1014.79 1015.17 1015.51 1015.73 1015.74 1015.55 1015.17 1014.65 1014.06 1013.50 1013.02 1012.66 1012.42 1012.28 1012.21 1012.17 1012.14 1012.09 1012.02 1011.95 1011.91 1011.90 1011.96
1022.16 1021.29 1020.54 1019.98 1019.66 1019.58 1019.70 1019.97 1020.26 1020.49 1020.53 1020.33 1019.86 1019.15 1018.28 1017.34 1016.47 1015.76 1015.28 1015.06 1015.08 1015.27 1015.53 1015.77 1015.91 1015.88 1015.67 1015.30 1014.82 1014.30 1013.81 1013.38 1013.05 1012.82 1012.66 1012.55 1012.45 1012.33 1012.18 1012.02 1011.86 1011.73 1011.64 1011.61
1023.32 1022.47 1021.74 1021.19 1020.84 1020.71 1020.76 1020.93 1021.11 1021.23 1021.18 1020.91 1020.41 1019.71 1018.86 1017.96 1017.13 1016.43 1015.94 1015.68 1015.61 1015.68 1015.82 1015.94 1015.97 1015.87 1015.63 1015.28 1014.85 1014.41 1013.99 1013.65 1013.38 1013.18 1013.03 1012.90 1012.75 1012.56 1012.33 1012.08 1011.82 1011.59 1011.41 1011.29
1024.40 1023.66 1023.01 1022.50 1022.16 1021.98 1021.93 1021.96 1021.99 1021.95 1021.76 1021.38 1020.82 1020.10 1019.27 1018.42 1017.63 1016.98 1016.50 1016.20 1016.05 1016.02 1016.03 1016.02 1015.94 1015.76 1015.48 1015.13 1014.75 1014.38 1014.05 1013.80 1013.61 1013.47 1013.34 1013.21 1013.02 1012.78 1012.48 1012.14 1011.79 1011.46 1011.18 1010.96
1025.29 1024.72 1024.22 1023.80 1023.49 1023.27 1023.13 1023.00 1022.85 1022.61 1022.25 1021.74 1021.09 1020.33 1019.52 1018.72 1017.99 1017.39 1016.93 1016.62 1016.42 1016.29 1016.19 1016.06 1015.86 1015.60 1015.28 1014.93 1014.58 1014.28 1014.04 1013.86 1013.75 1013.67 1013.58 1013.44 1013.24 1012.95 1012.58 1012.17 1011.73 1011.31 1010.93 1010.61
1025.94 1025.58 1025.25 1024.96 1024.69 1024.46 1024.22 1023.94 1023.60 1023.17 1022.62 1021.96 1021.21 1020.41 1019.61 1018.86 1018.20 1017.66 1017.24 1016.93 1016.70 1016.51 1016.31 1016.07 1015.78 1015.45 1015.08 1014.72 1014.40 1014.15 1013.97 1013.87 1013.82 1013.78 1013.71 1013.58 1013.36 1013.03 1012.61 1012.13 1011.61 1011.11 1010.64 1010.23
1026.35 1026.21 1026.05 1025.88 1025.68 1025.42 1025.10 1024.68 1024.16 1023.53 1022.81 1022.02 1021.18 1020.35 1019.57 1018.87 1018.28 1017.81 1017.44 1017.16 1016.91 1016.67 1016.40 1016.08 1015.71 1015.32 1014.92 1014.55 1014.24 1014.02 1013.90 1013.84 1013.83 1013.82 1013.76 1013.62 1013.37 1013.00 1012.54 1012.00 1011.42 1010.84 1010.29 1009.80
1026.63 1026.64 1026.62 1026.54 1026.37 1026.08 1025.67 1025.13 1024.45 1023.67 1022.80 1021.90 1021.00 1020.15 1019.40 1018.76 1018.25 1017.85 1017.54 1017.28 1017.04 1016.77 1016.45 1016.08 1015.66 1015.22 1014.79 1014.41 1014.12 1013.92 1013.82 1013.79 1013.79 1013.78 1013.71 1013.54 1013.26 1012.86 1012.34 1011.75 1011.12 1010.49 1009.88 1009.32
1026.87 1026.97 1027.00 1026.94 1026.75 1026.41 1025.91 1025.24 1024.44 1023.54 1022.57 1021.61 1020.68 1019.85 1019.14 1018.57 1018.14 1017.81 1017.55 1017.33 1017.08 1016.80 1016.45 1016.03 1015.57 1015.10 1014.66 1014.29 1014.00 1013.81 1013.72 1013.69 1013.68 1013.65 1013.55 1013.35 1013.03 1012.58 1012.02 1011.39 1010.71 1010.03 1009.38 1008.76
1027.19 1027.26 1027.25 1027.12 1026.85 1026.41 1025.81 1025.04 1024.14 1023.16 1022.15 1021.17 1020.26 1019.47 1018.83 1018.34 1017.98 1017.71 1017.49 1017.29 1017.04 1016.73 1016.35 1015.91 1015.42 1014.94 1014.49 1014.12 1013.84 1013.66 1013.56 1013.53 1013.50 1013.43 1013.29 1013.04 1012.67 1012.17 1011.57 1010.90 1010.18 1009.47 1008.78 1008.13
1027.64 1027.57 1027.41 1027.14 1026.72 1026.14 1025.42 1024.56 1023.60 1022.59 1021.58 1020.63 1019.79 1019.08 1018.51 1018.10 1017.80 1017.57 1017.38 1017.16 1016.90 1016.56 1016.14 1015.66 1015.16 1014.66 1014.22 1013.85 1013.58 1013.41 1013.32 1013.27 1013.21 1013.11 1012.92 1012.62 1012.19 1011.65 1011.00 1010.29 1009.54 1008.80 1008.08 1007.41
1028.18 1027.88 1027.49 1027.00 1026.39 1025.66 1024.81 1023.87 1022.88 1021.88 1020.93 1020.05 1019.30 1018.68 1018.21 1017.87 1017.61 1017.40 1017.20 1016.95 1016.64 1016.25 1015.78 1015.27 1014.74 1014.24 1013.80 1013.45 1013.20 1013.05 1012.96 1012.90 1012.82 1012.69 1012.46 1012.11 1011.63 1011.03 1010.35 1009.60 1008.82 1008.05 1007.31 1006.62
1028.65 1028.08 1027.43 1026.69 1025.88 1024.98 1024.03 1023.04 1022.05 1021.10 1020.23 1019.46 1018.82 1018.31 1017.92 1017.64 1017.41 1017.19 1016.95 1016.65 1016.27 1015.81 1015.28 1014.73 1014.18 1013.67 1013.25 1012.92 1012.70 1012.57 1012.49 1012.44 1012.36 1012.20 1011.93 1011.55 1011.03 1010.39 1009.66 1008.87 1008.06 1007.26 1006.50 1005.80
1028.86 1028.03 1027.12 1026.16 1025.15 1024.12 1023.10 1022.09 1021.14 1020.27 1019.51 1018.86 1018.34 1017.93 1017.62 1017.38 1017.15 1016.90 1016.61 1016.23 1015.77 1015.24 1014.66 1014.06 1013.49 1012.98 1012.58 1012.28 1012.09 1012.00 1011.95 1011.92 1011.84 1011.67 1011.39 1010.98 1010.43 1009.76 1008.99 1008.17 1007.33 1006.50 1005.72 1005.00
1028.61 1027.56 1026.45 1025.32 1024.18 1023.07 1022.02 1021.05 1020.17 1019.40 1018.75 1018.23 1017.82 1017.51 1017.26 1017.04 1016.80 1016.51 1016.15 1015.70 1015.17 1014.57 1013.93 1013.30 1012.72 1012.23 1011.85 1011.59 1011.44 1011.39 1011.38 1011.37 1011.31 1011.15 1010.87 1010.45 1009.88 1009.19 1008.40 1007.55 1006.69 1005.83 1005.03 1004.30
1027.77 1026.58 1025.35 1024.12 1022.94 1021.83 1020.81 1019.90 1019.12 1018.47 1017.95 1017.55 1017.24 1017.00 1016.79 1016.58 1016.32 1015.99 1015.57 1015.06 1014.47 1013.82 1013.15 1012.51 1011.93 1011.46 1011.12 1010.90 1010.80 1010.78 1010.81 1010.83 1010.80 1010.66 1010.39 1009.98 1009.41 1008.72 1007.92 1007.06 1006.18 1005.31 1004.50 1003.77
1026.32 1025.08 1023.82 1022.60 1021.45 1020.41 1019.48 1018.69 1018.03 1017.50 1017.10 1016.79 1016.56 1016.37 1016.19 1015.97 1015.69 1015.33 1014.88 1014.33 1013.71 1013.04 1012.37 1011.74 1011.19 1010.75 1010.44 1010.26 1010.20 1010.22 1010.28 1010.32 1010.31 1010.20 1009.95 1009.56 1009.02 1008.34 1007.56 1006.71 1005.84 1004.98 1004.17 1003.44
1024.38 1023.16 1021.97 1020.84 1019.80 1018.89 1018.10 1017.44 1016.92 1016.52 1016.21 1015.98 1015.80 1015.64 1015.46 1015.23 1014.94 1014.56 1014.09 1013.54 1012.93 1012.28 1011.64 1011.05 1010.54 1010.14 1009.86 1009.71 1009.67 1009.70 1009.77 1009.83 1009.83 1009.74 1009.52 1009.17 1008.67 1008.04 1007.30 1006.50 1005.66 1004.84 1004.06 1003.37
1022.16 1021.04 1019.98 1019.01 1018.14 1017.39 1016.77 1016.27 1015.88 1015.58 1015.35 1015.17 1015.01 1014.85 1014.67 1014.43 1014.13 1013.75 1013.29 1012.77 1012.19 1011.59 1011.01 1010.46 1010.00 1009.63 1009.38 1009.24 1009.19 1009.21 1009.27 1009.32 1009.32 1009.24 1009.06 1008.75 1008.31 1007.75 1007.10 1006.38 1005.63 1004.88 1004.17 1003.54
Thickness
5494 5497 5507 5517 5523 5531 5534 5539 5545 5555 5567 5571 5576 5585 5597 5606 5611 5616 5623 5629 5636 5644 5652 5656 5659 5661 5663 5665 5667 5669 5670 5670 5668 5667 5666 5665 5665 5665 5665 5664 5664 5662 5661 5659
5478 5488 5501 5506 5511 5517 5522 5527 5535 5544 5554 5560 5565 5574 5586 5596 5604 5611 5617 5623 5629 5635 5641 5646 5649 5652 5654 5657 5660 5661 5664 5665 5665 5665 5665 5663 5663 5662 5662 5661 5660 5659 5658 5657
5468 5483 5490 5494 5500 5505 5513 5518 5524 5530 5537 5546 5551 5561 5577 5591 5598 5605 5611 5618 5623 5628 5632 5636 5639 5642 5645 5649 5652 5656 5658 5659 5660 5660 5658 5657 5656 5656 5656 5656 5656 5655 5654 5652
5462 5473 5478 5483 5490 5496 5503 5512 5516 5520 5520 5526 5536 5538 5565 5578 5586 5596 5604 5608 5613 5618 5623 5626 5628 5631 5634 5639 5643 5647 5649 5651 5653 5653 5653 5652 5652 5652 5654 5652 5651 5650 5648 5647
5456 5463 5468 5473 5482 5488 5493 5502 5505 5509 5510 5511 5520 5525 5548 5565 5577 5589 5595 5599 5602 5606 5610 5614 5618 5622 5625 5628 5633 5637 5639 5641 5644 5645 5646 5646 5646 5647 5646 5644 5643 5642 5641 5640
5448 5455 5460 5467 5475 5479 5483 5488 5491 5493 5494 5496 5513 5514 5534 5550 5570 5579 5584 5587 5591 5594 5597 5600 5605 5609 5613 5616 5621 5624 5627 5630 5634 5635 5637 5637 5638 5638 5636 5635 5634 5633 5633 5632
5436 5446 5453 5460 5464 5469 5473 5470 5467 5471 5473 5483 5505 5510 5529 5548 5559 5567 5571 5574 5577 5580 5583 5586 5590 5594 5598 5601 5605 5609 5614 5618 5621 5623 5625 5627 5628 5628 5628 5627 5626 5625 5624 5623
5422 5433 5447 5453 5458 5461 5464 5466 5460 5460 5467 5476 5493 5504 5526 5537 5544 5551 5556 5559 5563 5565 5569 5573 5576 5580 5583 5586 5590 5594 5598 5602 5606 5609 5612 5614 5615 5616 5617 5617 5616 5615 5614 5614
5420 5430 5444 5450 5455 5457 5457 5459 5464 5457 5452 5459 5476 5493 5513 5526 5529 5535 5540 5543 5547 5550 5554 5557 5561 5564 5567 5570 5574 5577 5582 5586 5590 5593 5597 5599 5601 5602 5603 5604 5604 5604 5603 5603
5419 5421 5435 5440 5448 5451 5454 5455 5450 5443 5440 5444 5467 5484 5499 5515 5516 5520 5523 5526 5531 5534 5537 5540 5544 5547 5550 5553 5557 5561 5565 5568 5572 5575 5579 5582 5584 5586 5588 5589 5590 5591 5591 5590
5415 5412 5421 5430 5436 5439 5443 5446 5446 5440 5437 5440 5449 5478 5498 5502 5505 5506 5509 5513 5516 5518 5520 5523 5526 5530 5533 5536 5540 5544 5547 5551 5554 5557 5560 5564 5566 5568 5571 5572 5574 5575 5575 5576
5411 5407 5405 5419 5429 5434 5438 5438 5438 5431 5427 5433 5446 5468 5489 5487 5489 5491 5493 5497 5500 5502 5503 5506 5509 5513 5516 5520 5523 5526 5529 5533 5536 5539 5542 5544 5547 5550 5552 5554 5556 5557 5558 5559
5408 5401 5394 5405 5415 5421 5425 5428 5430 5427 5425 5423 5428 5455 5473 5471 5473 5475 5477 5479 5482 5484 5486 5489 5493 5496 5499 5502 5505 5508 5511 5514 5517 5521 5523 5526 5528 5530 5532 5534 5537 5539 5540 5541
5405 5393 5390 5395 5403 5408 5413 5418 5420 5417 5411 5413 5426 5444 5459 5459 5459 5461 5463 5464 5465 5468 5471 5474 5478 5480 5483 5485 5487 5490 5493 5495 5499 5502 5505 5507 5508 5511 5513 5515 5518 5520 5521 5522
5394 5383 5384 5390 5395 5398 5402 5410 5415 5414 5414 5413 5426 5434 5445 5445 5446 5448 5449 5452 5454 5456 5458 5460 5462 5464 5466 5468 5470 5473 5475 5477 5480 5483 5486 5488 5490 5492 5494 5496 5498 5500 5503 5504
5382 5375 5373 5377 5387 5390 5395 5406 5411 5413 5415 5414 5419 5429 5438 5435 5435 5435 5437 5439 5440 5443 5445 5446 5447 5448 5449 5451 5453 5455 5457 5459 5461 5463 5466 5468 5470 5473 5475 5476 5478 5481 5483 5485
5370 5365 5362 5363 5371 5375 5376 5401 5407 5408 5409 5411 5414 5425 5425 5423 5425 5426 5427 5427 5428 5430 5430 5431 5432 5432 5433 5434 5435 5436 5438 5440 5442 5445 5447 5449 5450 5453 5455 5457 5459 5461 5463 5465
5363 5357 5351 5347 5349 5360 5393 5401 5401 5402 5406 5406 5409 5412 5412 5413 5413 5413 5414 5414 5415 5416 5416 5417 5417 5418 5418 5419 5419 5419 5420 5422 5424 5426 5428 5429 5431 5434 5436 5438 5440 5442 5443 5445
5363 5355 5342 5337 5335 5346 5379 5390 5391 5390 5394 5398 5398 5400 5401 5401 5400 5401 5402 5401 5402 5402 5402 5402 5402 5403 5403 5403 5402 5403 5404 5404 5406 5408 5409 5410 5412 5414 5417 5419 5421 5422 5423 5425
5355 5351 5339 5329 5331 5336 5383 5388 5384 5384 5383 5390 5387 5387 5387 5388 5386 5391 5391 5388 5388 5388 5387 5387 5387 5387 5387 5387 5386 5387 5387 5388 5389 5390 5391 5392 5393 5396 5398 5400 5401 5402 5404 5405
5341 5338 5336 5329 5327 5342 5374 5375 5376 5366 5376 5380 5377 5375 5374 5373 5375 5377 5376 5375 5374 5373 5373 5372 5372 5371 5371 5370 5370 5371 5371 5372 5372 5372 5373 5374 5376 5377 5380 5381 5382 5383 5385 5386
5335 5329 5326 5323 5326 5344 5370 5365 5365 5368 5370 5368 5365 5363 5361 5362 5363 5363 5362 5361 5360 5359 5358 5358 5357 5357 5356 5354 5353 5354 5354 5355 5354 5355 5356 5357 5359 5360 5362 5363 5364 5365 5366 5367
5335 5341 5335 5336 5349 5362 5359 5358 5358 5355 5354 5354 5351 5351 5349 5348 5349 5349 5348 5348 5347 5346 5344 5343 5341 5342 5341 5339 5338 5337 5338 5337 5337 5337 5339 5340 5342 5343 5345 5346 5347 5347 5348 5349
5330 5333 5332 5333 5346 5351 5349 5345 5344 5342 5341 5341 5339 5337 5335 5333 5335 5335 5335 5335 5333 5332 5330 5328 5326 5326 5326 5324 5322 5321 5321 5320 5320 5320 5321 5322 5324 5325 5326 5327 5329 5329 5330 5331
5328 5324 5321 5324 5337 5338 5339 5336 5335 5334 5330 5327 5325 5323 5322 5321 5322 5322 5320 5319 5317 5317 5314 5312 5311 5311 5310 5308 5307 5306 5305 5304 5304 5304 5305 5305 5306 5307 5308 5309 5310 5312 5314 5314
5326 5322 5320 5329 5334 5327 5331 5330 5326 5321 5319 5316 5313 5313 5311 5308 5307 5306 5304 5303 5301 5299 5298 5296 5294 5294 5293 5291 5291 5290 5289 5288 5287 5289 5289 5289 5289 5290 5291 5291 5293 5295 5297 5298